SAMSAT-IONOSPHERE (RS7*)

Last updated on Wed Feb 05 2025 00:03:01 GMT+0000 (Coordinated Universal Time)

1 61784U 24199BB 25035.57367899 .00025777 00000+0 96301-3 0 9999 2 61784 97.3745 265.0768 0015367 282.0511 77.9006 15.27236030 60967
UTC large
Height (km)
Speed (km/s)
/
Latitude / Longitude
Inclination (degrees)
Orbital Period (minutes)
Azimuth
Elevation
Range (km)
Doppler Factor

Next 0 passes for location: London (51.5072 / 0.1276)

Sorry there are no passes over London.